Location: Kalberh�ni
(46.4610°N, 7.2453°E)
Time: 14:10:11
(UTC+00:00)

Envisat - Visible Passes

Search period start: 01 October 2022 00:00
Search period end: 11 October 2022 00:00
Orbit: 764 x 765 km, 98.2° (Epoch: 01 October)

Date Brightness Start Highest point End Pass type
(mag) Time Alt. Az. Time Alt. Az. Time Alt. Az.
01 Oct 3.8 03:34:32 10° NNE 03:39:30 51° E 03:44:26 10° S visible
02 Oct 5.1 02:58:09 10° NE 03:02:18 25° E 03:06:25 10° SSE visible
02 Oct 3.3 04:36:40 10° N 04:41:31 46° WNW 04:46:21 10° SW visible
03 Oct 5.9 02:23:15 10° ENE 02:24:53 11° E 02:26:31 10° ESE visible
03 Oct 3.0 03:59:32 10° NNE 04:04:40 86° ESE 04:09:44 10° SSW visible
04 Oct 4.2 03:22:47 10° NNE 03:27:35 41° E 03:32:22 10° SSE visible
04 Oct 3.9 05:02:06 10° N 05:06:26 29° WNW 05:10:46 10° WSW visible
05 Oct 5.4 02:46:40 10° NE 02:50:20 20° E 02:53:58 10° SE visible
05 Oct 3.0 04:24:43 10° N 04:29:43 58° WNW 04:34:41 10° SSW visible
06 Oct 3.3 03:47:42 10° NNE 03:52:47 68° ESE 03:57:50 10° S visible
07 Oct 4.7 03:11:06 10° NNE 03:15:40 32° E 03:20:11 10° SSE visible
07 Oct 3.6 04:50:04 10° N 04:54:41 36° WNW 04:59:16 10° SW visible
08 Oct 5.7 02:35:20 10° NE 02:38:19 16° E 02:41:18 10° SE visible
08 Oct 2.9 04:12:48 10° N 04:17:53 73° WNW 04:22:56 10° SSW visible
09 Oct 3.7 03:35:54 10° NNE 03:40:54 54° E 03:45:51 10° S visible
10 Oct 5.0 02:59:28 10° NE 03:03:42 26° E 03:07:54 10° SSE visible
10 Oct 3.3 04:38:03 10° N 04:42:53 44° WNW 04:47:41 10° SW visible
